OE6ACM-10 Weather Reports


time (UTC)temp
C
wind
direction
speed
KPH
gust
KPH
rain 1hr
cm
rain 24hr
cm
rain mn
cm
humidity
%
barometer
mb
20260507145315 26 0.0 0.0 0.00 0.00 0.00 100 922.7
20260507144815 26 0.0 0.0 0.00 0.00 0.00 100 922.6
20260507144315 25 0.0 0.0 0.00 0.00 0.00 100 922.7
20260507143815 26 0.0 0.0 0.00 0.00 0.00 100 922.7
20260507143315 25 0.0 0.0 0.00 0.00 0.00 100 922.6
20260507142815 26 0.0 0.0 0.00 0.00 0.00 100 922.7
20260507142315 26 0.0 0.0 0.00 0.00 0.00 100 922.6
20260507141815 27 0.0 0.0 0.00 0.00 0.00 100 922.3
20260507141315 29 0.0 0.0 0.00 0.00 0.00 100 922.2
20260507140815 26 0.0 0.0 0.00 0.00 0.00 100 922.3
20260507140315 26 0.0 0.0 0.00 0.00 0.00 100 922.3
20260507135815 26 0.0 0.0 0.00 0.00 0.00 100 922.4
20260507135315 26 0.0 0.0 0.00 0.00 0.00 100 922.3
20260507134815 26 0.0 0.0 0.00 0.00 0.00 100 922.2
20260507134315 27 0.0 0.0 0.00 0.00 0.00 100 922.3
20260507133815 27 0.0 0.0 0.00 0.00 0.00 100 922.0
20260507133315 26 0.0 0.0 0.00 0.00 0.00 100 922.1
20260507132815 26 0.0 0.0 0.00 0.00 0.00 100 922.2
20260507132315 25 0.0 0.0 0.00 0.00 0.00 100 922.3
20260507131815 25 0.0 0.0 0.00 0.00 0.00 100 922.1
20260507131315 27 0.0 0.0 0.00 0.00 0.00 100 921.8
20260507130815 28 0.0 0.0 0.00 0.00 0.00 100 921.6
20260507130315 30 0.0 0.0 0.00 0.00 0.00 93 921.5
20260507125815 31 0.0 0.0 0.00 0.00 0.00 92 921.6
20260507125315 31 0.0 0.0 0.00 0.00 0.00 87 921.5
20260507124815 33 0.0 0.0 0.00 0.00 0.00 93 921.6
20260507124315 32 0.0 0.0 0.00 0.00 0.00 90 921.6
20260507123815 32 0.0 0.0 0.00 0.00 0.00 100 921.6
20260507123315 31 0.0 0.0 0.00 0.00 0.00 99 921.6
20260507122815 31 0.0 0.0 0.00 0.00 0.00 100 921.6
20260507122315 31 0.0 0.0 0.00 0.00 0.00 100 921.7
20260507121815 30 0.0 0.0 0.00 0.00 0.00 100 921.7
20260507121315 29 0.0 0.0 0.00 0.00 0.00 100 921.7
20260507120815 29 0.0 0.0 0.00 0.00 0.00 100 921.7
20260507120315 28 0.0 0.0 0.00 0.00 0.00 100 921.8
20260507115815 29 0.0 0.0 0.00 0.00 0.00 100 921.8
20260507115315 30 0.0 0.0 0.00 0.00 0.00 100 921.7
20260507114815 28 0.0 0.0 0.00 0.00 0.00 100 921.8
20260507114315 27 0.0 0.0 0.00 0.00 0.00 100 922.1
20260507113815 27 0.0 0.0 0.00 0.00 0.00 100 922.0
20260507113315 27 0.0 0.0 0.00 0.00 0.00 100 921.9
20260507112815 26 0.0 0.0 0.00 0.00 0.00 100 922.0
20260507112315 27 0.0 0.0 0.00 0.00 0.00 100 921.9
20260507111815 27 0.0 0.0 0.00 0.00 0.00 100 921.7
20260507111315 28 0.0 0.0 0.00 0.00 0.00 100 921.5
20260507110815 28 0.0 0.0 0.00 0.00 0.00 100 921.6
20260507110315 29 0.0 0.0 0.00 0.00 0.00 100 921.5
20260507105815 30 0.0 0.0 0.00 0.00 0.00 100 921.6
20260507105315 30 0.0 0.0 0.00 0.00 0.00 100 921.6
20260507104815 29 0.0 0.0 0.00 0.00 0.00 100 921.6
20260507104315 28 0.0 0.0 0.00 0.00 0.00 100 921.7
20260507103815 28 0.0 0.0 0.00 0.00 0.00 100 921.8
20260507103315 28 0.0 0.0 0.00 0.00 0.00 100 921.9
20260507102815 28 0.0 0.0 0.00 0.00 0.00 100 921.9
20260507102315 29 0.0 0.0 0.00 0.00 0.00 100 922.0
20260507101815 30 0.0 0.0 0.00 0.00 0.00 100 922.0
20260507101315 30 0.0 0.0 0.00 0.00 0.00 100 922.2
20260507100815 30 0.0 0.0 0.00 0.00 0.00 100 922.2
20260507100315 31 0.0 0.0 0.00 0.00 0.00 100 922.2
20260507095815 31 0.0 0.0 0.00 0.00 0.00 100 922.2
20260507095315 31 0.0 0.0 0.00 0.00 0.00 100 922.3
20260507094815 31 0.0 0.0 0.00 0.00 0.00 100 922.2
20260507094315 31 0.0 0.0 0.00 0.00 0.00 100 922.3
20260507093815 31 0.0 0.0 0.00 0.00 0.00 100 922.3
20260507093315 30 0.0 0.0 0.00 0.00 0.00 100 922.3
20260507092815 31 0.0 0.0 0.00 0.00 0.00 100 922.3
20260507092315 30 0.0 0.0 0.00 0.00 0.00 100 922.3
20260507091815 30 0.0 0.0 0.00 0.00 0.00 100 922.2
20260507091315 30 0.0 0.0 0.00 0.00 0.00 100 922.2
20260507090815 30 0.0 0.0 0.00 0.00 0.00 100 922.2
20260507090315 30 0.0 0.0 0.00 0.00 0.00 100 922.1
20260507085815 29 0.0 0.0 0.00 0.00 0.00 100 922.2
20260507085315 30 0.0 0.0 0.00 0.00 0.00 100 922.2
20260507084815 30 0.0 0.0 0.00 0.00 0.00 100 922.2
20260507084315 30 0.0 0.0 0.00 0.00 0.00 100 922.2
20260507083815 30 0.0 0.0 0.00 0.00 0.00 100 922.2
20260507083315 30 0.0 0.0 0.00 0.00 0.00 100 922.1
20260507082815 29 0.0 0.0 0.00 0.00 0.00 100 922.1
20260507082315 29 0.0 0.0 0.00 0.00 0.00 100 922.0
20260507081815 28 0.0 0.0 0.00 0.00 0.00 100 922.0
20260507081315 28 0.0 0.0 0.00 0.00 0.00 100 922.0
20260507080815 28 0.0 0.0 0.00 0.00 0.00 100 922.0
20260507080315 27 0.0 0.0 0.00 0.00 0.00 100 922.1
20260507075815 27 0.0 0.0 0.00 0.00 0.00 100 922.0
20260507075315 27 0.0 0.0 0.00 0.00 0.00 100 922.0
20260507074815 27 0.0 0.0 0.00 0.00 0.00 100 921.9
20260507074315 27 0.0 0.0 0.00 0.00 0.00 100 921.9
20260507073815 27 0.0 0.0 0.00 0.00 0.00 100 921.9
20260507073315 27 0.0 0.0 0.00 0.00 0.00 100 921.9
20260507072815 26 0.0 0.0 0.00 0.00 0.00 100 921.8
20260507072315 26 0.0 0.0 0.00 0.00 0.00 100 921.7
20260507071815 25 0.0 0.0 0.00 0.00 0.00 100 921.7
20260507071315 25 0.0 0.0 0.00 0.00 0.00 100 921.8
20260507070815 25 0.0 0.0 0.00 0.00 0.00 100 921.8
20260507070315 25 0.0 0.0 0.00 0.00 0.00 100 921.8
20260507065815 25 0.0 0.0 0.00 0.00 0.00 100 921.7
20260507065315 25 0.0 0.0 0.00 0.00 0.00 100 921.7
20260507064815 25 0.0 0.0 0.00 0.00 0.00 100 921.7
20260507064315 26 0.0 0.0 0.00 0.00 0.00 100 921.7
20260507063815 26 0.0 0.0 0.00 0.00 0.00 100 921.7
20260507063315 26 0.0 0.0 0.00 0.00 0.00 100 921.7
20260507062815 26 0.0 0.0 0.00 0.00 0.00 100 921.7
20260507062315 26 0.0 0.0 0.00 0.00 0.00 100 921.7
20260507061815 25 0.0 0.0 0.00 0.00 0.00 100 921.6
20260507061315 25 0.0 0.0 0.00 0.00 0.00 100 921.6
20260507060815 25 0.0 0.0 0.00 0.00 0.00 100 921.5
20260507060315 25 0.0 0.0 0.00 0.00 0.00 100 921.5
20260507055815 24 0.0 0.0 0.00 0.00 0.00 100 921.4
20260507055315 25 0.0 0.0 0.00 0.00 0.00 100 921.3
20260507054815 24 0.0 0.0 0.00 0.00 0.00 100 921.4
20260507054315 24 0.0 0.0 0.00 0.00 0.00 100 921.4
20260507053815 24 0.0 0.0 0.00 0.00 0.00 100 921.4
20260507053315 24 0.0 0.0 0.00 0.00 0.00 100 921.4
20260507052815 24 0.0 0.0 0.00 0.00 0.00 100 921.3
20260507052315 23 0.0 0.0 0.00 0.00 0.00 100 921.4
20260507051815 23 0.0 0.0 0.00 0.00 0.00 100 921.4
20260507051315 23 0.0 0.0 0.00 0.00 0.00 100 921.4
20260507050815 23 0.0 0.0 0.00 0.00 0.00 100 921.4
20260507050315 23 0.0 0.0 0.00 0.00 0.00 100 921.5
20260507045815 23 0.0 0.0 0.00 0.00 0.00 100 921.4
20260507045315 23 0.0 0.0 0.00 0.00 0.00 100 921.4
20260507044815 22 0.0 0.0 0.00 0.00 0.00 100 921.4
20260507044315 23 0.0 0.0 0.00 0.00 0.00 100 921.2
20260507043815 22 0.0 0.0 0.00 0.00 0.00 100 921.2
20260507043315 22 0.0 0.0 0.00 0.00 0.00 100 921.1
20260507042815 22 0.0 0.0 0.00 0.00 0.00 100 921.0
20260507042315 22 0.0 0.0 0.00 0.00 0.00 100 921.0
20260507041815 22 0.0 0.0 0.00 0.00 0.00 100 921.0
20260507041315 22 0.0 0.0 0.00 0.00 0.00 100 921.0
20260507040815 22 0.0 0.0 0.00 0.00 0.00 100 921.1
20260507040315 22 0.0 0.0 0.00 0.00 0.00 100 921.1
20260507035815 22 0.0 0.0 0.00 0.00 0.00 100 921.0
20260507035315 22 0.0 0.0 0.00 0.00 0.00 100 921.0
20260507034815 22 0.0 0.0 0.00 0.00 0.00 100 920.9
20260507034315 22 0.0 0.0 0.00 0.00 0.00 100 920.8
20260507033815 22 0.0 0.0 0.00 0.00 0.00 100 920.8
20260507033315 22 0.0 0.0 0.00 0.00 0.00 100 920.7
20260507032815 22 0.0 0.0 0.00 0.00 0.00 100 920.7
20260507032315 22 0.0 0.0 0.00 0.00 0.00 100 920.6
20260507031815 22 0.0 0.0 0.00 0.00 0.00 100 920.6
20260507031315 22 0.0 0.0 0.00 0.00 0.00 100 920.5
20260507030815 22 0.0 0.0 0.00 0.00 0.00 100 920.6
20260507030315 22 0.0 0.0 0.00 0.00 0.00 100 920.6
20260507025815 22 0.0 0.0 0.00 0.00 0.00 100 920.6
20260507025315 22 0.0 0.0 0.00 0.00 0.00 100 920.5
20260507024815 22 0.0 0.0 0.00 0.00 0.00 100 920.5
20260507024315 22 0.0 0.0 0.00 0.00 0.00 100 920.4
20260507023815 22 0.0 0.0 0.00 0.00 0.00 100 920.3
20260507023315 22 0.0 0.0 0.00 0.00 0.00 100 920.4
20260507022815 22 0.0 0.0 0.00 0.00 0.00 100 920.4
20260507022315 22 0.0 0.0 0.00 0.00 0.00 100 920.4
20260507021815 22 0.0 0.0 0.00 0.00 0.00 100 920.4
20260507021315 22 0.0 0.0 0.00 0.00 0.00 100 920.4
20260507020815 22 0.0 0.0 0.00 0.00 0.00 100 920.3
20260507020315 22 0.0 0.0 0.00 0.00 0.00 100 920.2
20260507015815 22 0.0 0.0 0.00 0.00 0.00 100 920.2
20260507015315 22 0.0 0.0 0.00 0.00 0.00 100 920.1
20260507014815 22 0.0 0.0 0.00 0.00 0.00 100 920.2
20260507014315 23 0.0 0.0 0.00 0.00 0.00 100 920.1
20260507013815 22 0.0 0.0 0.00 0.00 0.00 100 920.1
20260507013315 23 0.0 0.0 0.00 0.00 0.00 100 920.1
20260507012815 23 0.0 0.0 0.00 0.00 0.00 100 920.1
20260507012315 23 0.0 0.0 0.00 0.00 0.00 100 920.1
20260507011815 23 0.0 0.0 0.00 0.00 0.00 100 919.9
20260507011315 23 0.0 0.0 0.00 0.00 0.00 100 920.0
20260507010815 23 0.0 0.0 0.00 0.00 0.00 100 920.0
20260507010315 23 0.0 0.0 0.00 0.00 0.00 100 920.0
20260507005815 23 0.0 0.0 0.00 0.00 0.00 100 919.9
20260507005315 23 0.0 0.0 0.00 0.00 0.00 100 919.8
20260507004815 23 0.0 0.0 0.00 0.00 0.00 100 919.8
20260507004315 23 0.0 0.0 0.00 0.00 0.00 100 919.8
20260507003815 23 0.0 0.0 0.00 0.00 0.00 100 919.8
20260507003315 23 0.0 0.0 0.00 0.00 0.00 100 919.7
20260507002815 23 0.0 0.0 0.00 0.00 0.00 100 919.7
20260507002315 23 0.0 0.0 0.00 0.00 0.00 100 919.6
20260507001815 23 0.0 0.0 0.00 0.00 0.00 100 919.6
20260507001315 24 0.0 0.0 0.00 0.00 0.00 100 919.7
20260507000815 24 0.0 0.0 0.00 0.00 0.00 100 919.6
20260507000315 23 0.0 0.0 0.00 0.00 0.00 100 919.6
20260506235815 24 0.0 0.0 0.00 0.00 0.00 100 919.7
20260506235315 24 0.0 0.0 0.00 0.00 0.00 100 919.7
20260506234815 24 0.0 0.0 0.00 0.00 0.00 100 919.7
20260506234315 24 0.0 0.0 0.00 0.00 0.00 100 919.7
20260506233815 24 0.0 0.0 0.00 0.00 0.00 100 919.6
20260506233315 25 0.0 0.0 0.00 0.00 0.00 100 919.7
20260506232815 24 0.0 0.0 0.00 0.00 0.00 100 919.5
20260506232315 24 0.0 0.0 0.00 0.00 0.00 100 919.6
20260506231815 24 0.0 0.0 0.00 0.00 0.00 100 919.6
20260506231315 24 0.0 0.0 0.00 0.00 0.00 100 919.5
20260506230815 25 0.0 0.0 0.00 0.00 0.00 100 919.6
20260506230315 24 0.0 0.0 0.00 0.00 0.00 100 919.6
20260506225815 24 0.0 0.0 0.00 0.00 0.00 100 919.5
20260506225315 25 0.0 0.0 0.00 0.00 0.00 100 919.5
20260506224815 25 0.0 0.0 0.00 0.00 0.00 100 919.3
20260506224315 25 0.0 0.0 0.00 0.00 0.00 100 919.4
20260506223815 25 0.0 0.0 0.00 0.00 0.00 100 919.4
20260506223315 25 0.0 0.0 0.00 0.00 0.00 100 919.4
20260506222815 25 0.0 0.0 0.00 0.00 0.00 100 919.4
20260506222315 25 0.0 0.0 0.00 0.00 0.00 100 919.4
20260506221815 25 0.0 0.0 0.00 0.00 0.00 100 919.4
20260506221315 25 0.0 0.0 0.00 0.00 0.00 100 919.3
20260506220815 25 0.0 0.0 0.00 0.00 0.00 100 919.3
20260506220315 25 0.0 0.0 0.00 0.00 0.00 100 919.4
20260506215815 25 0.0 0.0 0.00 0.00 0.00 100 919.3
20260506215315 26 0.0 0.0 0.00 0.00 0.00 100 919.3
20260506214815 26 0.0 0.0 0.00 0.00 0.00 100 919.2
20260506214315 26 0.0 0.0 0.00 0.00 0.00 100 919.2
20260506213815 26 0.0 0.0 0.00 0.00 0.00 100 919.1
20260506213315 26 0.0 0.0 0.00 0.00 0.00 100 919.1
20260506212815 26 0.0 0.0 0.00 0.00 0.00 100 919.2
20260506212315 26 0.0 0.0 0.00 0.00 0.00 100 919.1
20260506211815 26 0.0 0.0 0.00 0.00 0.00 100 919.1
20260506211315 26 0.0 0.0 0.00 0.00 0.00 100 919.2
20260506210815 26 0.0 0.0 0.00 0.00 0.00 100 919.1
20260506210315 26 0.0 0.0 0.00 0.00 0.00 100 919.1
20260506205815 26 0.0 0.0 0.00 0.00 0.00 100 919.1
20260506205315 25 0.0 0.0 0.00 0.00 0.00 100 919.2
20260506204815 26 0.0 0.0 0.00 0.00 0.00 100 919.1
20260506204315 26 0.0 0.0 0.00 0.00 0.00 100 919.1
20260506203815 26 0.0 0.0 0.00 0.00 0.00 100 919.0
20260506203315 26 0.0 0.0 0.00 0.00 0.00 100 919.0
20260506202815 26 0.0 0.0 0.00 0.00 0.00 100 919.0
20260506202315 26 0.0 0.0 0.00 0.00 0.00 100 918.9
20260506201815 26 0.0 0.0 0.00 0.00 0.00 100 918.8
20260506201315 26 0.0 0.0 0.00 0.00 0.00 100 918.8
20260506200815 26 0.0 0.0 0.00 0.00 0.00 100 918.7
20260506200315 26 0.0 0.0 0.00 0.00 0.00 100 918.8
20260506195815 26 0.0 0.0 0.00 0.00 0.00 100 918.8
20260506195315 26 0.0 0.0 0.00 0.00 0.00 100 918.8
20260506194815 26 0.0 0.0 0.00 0.00 0.00 100 918.6
20260506194315 26 0.0 0.0 0.00 0.00 0.00 100 918.6
20260506193815 26 0.0 0.0 0.00 0.00 0.00 100 918.6
20260506193315 26 0.0 0.0 0.00 0.00 0.00 100 918.5
20260506192815 26 0.0 0.0 0.00 0.00 0.00 100 918.4
20260506192315 26 0.0 0.0 0.00 0.00 0.00 100 918.4
20260506191815 26 0.0 0.0 0.00 0.00 0.00 100 918.4
20260506191315 27 0.0 0.0 0.00 0.00 0.00 100 918.4
20260506190815 26 0.0 0.0 0.00 0.00 0.00 100 918.4
20260506190315 26 0.0 0.0 0.00 0.00 0.00 100 918.3
20260506185815 26 0.0 0.0 0.00 0.00 0.00 100 918.2
20260506185315 27 0.0 0.0 0.00 0.00 0.00 100 918.2
20260506184815 27 0.0 0.0 0.00 0.00 0.00 100 918.1
20260506184315 27 0.0 0.0 0.00 0.00 0.00 100 918.0
20260506183815 27 0.0 0.0 0.00 0.00 0.00 100 917.8
20260506183315 27 0.0 0.0 0.00 0.00 0.00 100 917.8
20260506182815 27 0.0 0.0 0.00 0.00 0.00 100 917.6
20260506182315 27 0.0 0.0 0.00 0.00 0.00 100 917.5
20260506181815 27 0.0 0.0 0.00 0.00 0.00 100 917.5
20260506181315 28 0.0 0.0 0.00 0.00 0.00 100 917.4
20260506180815 28 0.0 0.0 0.00 0.00 0.00 100 917.3
20260506180315 28 0.0 0.0 0.00 0.00 0.00 100 917.3
20260506175815 28 0.0 0.0 0.00 0.00 0.00 100 917.2
20260506175315 28 0.0 0.0 0.00 0.00 0.00 100 917.2
20260506174815 28 0.0 0.0 0.00 0.00 0.00 100 917.2
20260506174315 28 0.0 0.0 0.00 0.00 0.00 100 917.1
20260506173815 28 0.0 0.0 0.00 0.00 0.00 100 917.1
20260506173315 28 0.0 0.0 0.00 0.00 0.00 100 917.3
20260506172815 28 0.0 0.0 0.00 0.00 0.00 100 917.2
20260506172315 28 0.0 0.0 0.00 0.00 0.00 100 917.2
20260506171815 28 0.0 0.0 0.00 0.00 0.00 100 917.3
20260506171242 28 0.0 0.0 0.00 0.00 0.00 100 917.2
20260506170742 29 0.0 0.0 0.00 0.00 0.00 100 917.1
20260506170242 29 0.0 0.0 0.00 0.00 0.00 100 917.1
20260506165742 29 0.0 0.0 0.00 0.00 0.00 100 917.1
20260506165242 29 0.0 0.0 0.00 0.00 0.00 100 917.1
20260506164742 30 0.0 0.0 0.00 0.00 0.00 100 917.2
20260506164242 30 0.0 0.0 0.00 0.00 0.00 100 917.1
20260506163742 30 0.0 0.0 0.00 0.00 0.00 100 917.2
20260506163242 30 0.0 0.0 0.00 0.00 0.00 100 917.2
20260506162742 29 0.0 0.0 0.00 0.00 0.00 100 917.3
20260506162242 30 0.0 0.0 0.00 0.00 0.00 100 917.4
20260506161742 30 0.0 0.0 0.00 0.00 0.00 100 917.3
20260506161242 30 0.0 0.0 0.00 0.00 0.00 100 917.4
20260506160742 30 0.0 0.0 0.00 0.00 0.00 100 917.4
20260506160242 30 0.0 0.0 0.00 0.00 0.00 100 917.5
20260506155742 30 0.0 0.0 0.00 0.00 0.00 100 917.5
20260506155242 30 0.0 0.0 0.00 0.00 0.00 100 917.5
20260506154742 30 0.0 0.0 0.00 0.00 0.00 100 917.6
20260506154242 31 0.0 0.0 0.00 0.00 0.00 100 917.5
20260506153742 31 0.0 0.0 0.00 0.00 0.00 100 917.5
20260506153242 31 0.0 0.0 0.00 0.00 0.00 100 917.6
20260506152742 32 0.0 0.0 0.00 0.00 0.00 98 917.5
20260506152242 31 0.0 0.0 0.00 0.00 0.00 100 917.6
20260506151742 31 0.0 0.0 0.00 0.00 0.00 100 917.6
20260506151242 31 0.0 0.0 0.00 0.00 0.00 100 917.6
20260506150742 31 0.0 0.0 0.00 0.00 0.00 100 917.6
20260506150242 30 0.0 0.0 0.00 0.00 0.00 100 917.5